Location: Barcelona
(41.3830°N, 2.1830°E)
Time: 22:52:58
(UTC+02:00)

ISS - Pass Details

Date: 25 July 2017
Orbit: 400 x 408 km, 51.6° (Epoch: 24 July)

Event Time Altitude Azimuth Distance (km) Brightness Sun altitude
Rises 00:03:47 0° 272° (W) 2,306 0.4 -23.5°
Reaches altitude 10° 00:06:11 10° 289° (WNW) 1,449 -0.4 -23.7°
Maximum altitude 00:08:44 21° 341° (NNW) 969 -1.1 -23.9°
Drops below altitude 10° 00:11:17 10° 33° (NNE) 1,453 -0.7 -24.1°
Sets 00:13:43 0° 50° (NE) 2,315 0.2 -24.4°
